ELEKTRO-L 2             
1 41105U 15074A   19260.49612323 -.00000102  00000-0  00000+0 0  9999
2 41105   0.5538 103.7046 0001300  38.7132 108.3500  1.00271759 13804
FREGAT R/B              
1 41106U 15074B   19260.00755089 -.00000306  00000-0  00000+0 0  9990
2 41106   2.3565  86.1992 0183313 288.2297  70.3940  1.02897341 14145
FREGAT DEB [TANK]       
1 41108U 15074D   19259.63684906  .00007832  31483-5  22406-3 0  9990
2 41108  50.3733  13.2487 2093690 336.6597  15.1206 11.26740295152347